Temperature
18 18 18 18 18 18 18 18 17 17 17 17 18 18 18 18 18 18 18 18 18 18 17 17 17 17 17 17 17 17 16 16 16 16 16 16 16 16 16 15 15 15 15
18 18 18 18 18 18 18 18 18 17 17 17 18 18 18 17 17 17 17 17 18 17 17 17 17 17 17 17 16 16 16 16 16 16 16 16 16 16 15 15 15 15 15
18 18 18 18 18 18 18 17 17 17 18 18 18 18 17 17 17 17 17 17 17 17 17 17 17 17 17 17 16 16 16 16 16 16 16 16 16 16 15 15 15 15 15
18 18 18 18 18 18 18 18 18 18 18 18 18 18 18 17 17 17 17 17 17 17 17 17 17 17 17 17 17 16 16 16 16 16 16 16 16 16 15 15 15 15 15
18 18 18 18 18 18 18 18 18 18 18 18 18 18 18 18 17 17 17 17 17 17 17 17 17 17 17 17 17 17 16 16 16 16 16 16 16 16 16 15 15 15 15
18 18 18 18 18 18 18 18 18 18 18 18 18 18 18 18 18 17 17 17 17 17 17 17 17 17 17 17 17 16 16 16 16 16 16 16 16 16 16 15 15 15 15
18 18 18 18 18 18 18 18 18 18 18 18 18 18 18 18 18 18 18 17 17 17 17 17 17 17 17 16 16 16 16 16 16 16 16 16 16 16 15 15 15 15 15
18 18 18 18 18 18 18 18 18 17 18 18 18 18 18 18 18 18 18 18 17 17 17 17 17 17 16 16 17 16 16 16 16 16 16 16 16 16 15 15 15 15 15
18 18 18 18 18 18 18 18 18 18 18 18 18 18 18 18 18 18 18 18 18 17 17 17 17 17 17 16 16 16 16 16 16 16 16 16 16 15 15 15 15 15 15
18 18 18 18 18 18 17 18 18 17 17 18 18 18 18 18 18 18 18 18 18 17 17 17 17 17 17 17 16 16 16 16 16 16 16 16 16 15 15 15 15 15 14
18 18 18 18 18 18 17 17 17 17 17 17 17 18 18 18 18 18 17 18 17 18 17 17 17 17 17 17 16 16 16 16 16 16 16 15 15 15 15 15 14 14 14
18 18 18 18 18 18 17 17 17 17 17 17 17 17 18 18 18 18 18 18 17 17 17 17 17 17 17 17 17 16 16 16 16 16 16 15 15 15 15 14 14 14 14
18 18 18 18 18 17 17 17 17 17 17 17 17 17 17 17 18 18 18 17 17 17 17 17 17 17 17 17 17 16 16 16 16 16 16 15 15 15 14 14 14 14 14
18 18 18 18 17 17 17 17 17 17 17 17 17 17 17 17 17 17 17 17 17 17 17 17 17 17 16 17 16 16 16 16 16 15 15 15 15 15 14 14 14 14 13
18 18 18 17 17 17 17 17 17 17 17 17 17 17 17 17 17 17 17 17 17 17 16 16 16 16 16 16 16 16 16 15 15 15 15 15 14 14 14 14 13 13 13
18 18 17 17 17 17 17 17 17 17 17 16 16 16 16 16 17 17 17 17 17 17 16 16 16 16 16 16 16 16 15 15 15 15 14 14 14 14 13 13 13 13 12
18 18 17 17 17 17 17 17 17 16 16 16 16 16 16 16 16 16 16 16 16 16 16 16 15 15 15 15 15 15 15 14 14 14 14 14 13 13 13 13 12 12 12
17 17 17 17 17 17 17 17 17 16 16 16 16 16 16 16 16 16 16 16 16 16 16 15 15 15 15 14 14 14 14 14 13 13 13 13 13 12 12 12 12 11 11
17 17 17 17 17 16 16 16 16 16 16 16 16 16 15 15 15 15 15 15 15 15 15 15 15 14 14 14 14 13 13 13 13 12 12 12 12 12 11 11 11 11 10
17 17 17 17 16 16 16 16 16 16 16 16 15 15 15 15 15 15 15 15 15 15 14 14 14 14 13 13 13 13 13 12 12 12 11 11 11 11 11 10 10 10 10
17 17 16 16 16 16 16 15 15 15 15 15 15 15 15 15 15 14 14 14 14 14 14 13 13 13 13 13 13 12 12 11 11 11 11 11 10 10 10 10 9 9 9
16 16 16 16 16 15 15 15 15 15 15 15 15 14 14 14 14 14 14 14 14 13 13 13 13 12 12 12 12 12 11 11 10 10 10 10 10 9 9 9 9 8 8
16 16 16 15 15 15 15 15 15 15 14 14 14 14 14 14 14 14 14 13 13 13 13 13 13 12 12 12 12 11 11 11 10 10 10 9 9 8 8 8 8 8 8
16 16 15 15 15 15 15 14 14 14 14 14 14 14 14 13 13 13 13 13 13 12 12 12 12 12 12 12 11 11 11 10 10 9 9 9 8 8 8 8 8 7 7
15 15 15 15 15 14 14 14 14 14 14 13 13 13 13 13 13 12 12 12 12 12 11 11 11 11 11 11 11 10 10 10 9 9 9 8 8 8 7 7 7 7 7
15 15 14 14 14 14 14 14 14 13 13 13 13 12 12 12 12 12 12 12 11 11 11 11 11 11 10 10 10 10 10 10 9 8 8 8 8 7 7 7 7 7 6
Wind_Speed
4 7 5 7 7 8 7 4 3 3 2 2 2 3 5 6 9 12 12 13 12 11 10 9 9 8 8 8 7 7 7 7 7 7 6 6 6 5 5 4 4 3 3
5 5 5 4 4 6 6 5 4 3 2 1 1 2 3 4 7 11 12 12 12 12 10 9 9 9 8 8 7 7 7 6 6 6 6 6 6 5 4 4 3 3 2
7 5 3 3 4 6 6 4 4 4 3 3 2 2 2 3 4 8 12 12 11 11 11 10 10 9 9 9 8 8 7 7 7 6 6 6 6 6 5 4 4 3 3
7 5 3 3 5 5 5 2 2 3 2 2 2 2 3 3 3 5 9 12 12 11 12 12 11 11 10 10 9 9 8 8 7 7 7 6 6 6 6 5 4 4 4
7 5 3 3 5 3 3 3 3 2 1 1 2 3 3 3 3 4 5 7 11 13 12 13 13 12 12 11 11 10 10 9 9 8 8 7 7 7 6 5 5 4 4
9 7 4 5 5 3 2 1 1 2 1 2 3 2 2 3 3 3 4 6 8 11 12 13 13 12 13 13 12 11 11 10 10 9 9 9 8 8 7 6 5 5 4
9 6 3 4 3 3 4 3 2 3 3 2 1 1 1 3 4 4 3 3 5 8 11 14 14 13 12 15 14 13 12 11 11 10 10 9 8 8 7 7 6 5 5
8 7 4 3 4 3 4 3 3 2 3 3 2 1 1 2 2 5 4 5 5 6 8 11 12 13 12 12 14 16 15 13 12 11 10 9 9 8 7 6 6 5 4
9 7 7 5 3 4 4 4 4 4 3 3 3 2 2 2 1 3 5 5 5 4 4 7 10 12 13 12 13 16 17 15 13 12 11 10 9 9 8 7 6 6 5
8 8 7 6 4 4 4 6 6 4 4 3 3 3 3 2 2 1 2 2 4 4 3 4 6 9 10 10 11 14 17 16 14 13 11 10 10 10 9 8 7 6 5
7 7 7 5 4 4 5 5 4 4 4 4 3 3 3 3 4 3 2 2 2 3 3 3 3 5 8 9 10 12 17 17 15 13 12 10 10 10 9 8 7 6 5
5 6 6 5 5 4 5 4 4 5 4 4 4 3 2 2 3 3 4 4 3 2 2 3 3 4 7 7 8 9 14 15 14 13 11 10 9 8 8 7 6 5 4
4 5 5 5 5 5 5 4 5 5 5 5 4 4 3 3 3 3 3 3 3 2 1 1 2 4 6 8 9 12 14 15 13 12 11 9 8 8 7 6 5 4 3
4 5 5 5 5 5 5 4 4 5 4 5 6 5 3 3 3 3 3 3 3 2 2 2 1 3 5 8 10 13 12 15 14 13 11 10 9 9 8 7 6 6 5
3 4 4 5 5 5 5 4 4 5 4 5 5 5 4 3 3 3 3 3 4 4 3 2 1 1 6 8 11 11 12 13 14 13 12 12 11 10 10 9 8 8 7
2 2 3 4 4 4 4 5 4 4 4 4 4 3 3 3 2 2 2 2 3 3 3 1 1 1 4 7 10 11 12 13 13 14 13 12 12 11 10 9 8 8 7
2 3 2 2 3 3 3 4 4 4 5 4 4 3 3 2 2 2 2 2 2 2 3 1 1 2 4 5 7 9 9 9 10 12 12 12 12 11 10 9 9 8 7
1 2 2 2 2 2 2 3 4 3 3 3 3 3 3 3 3 3 2 2 2 2 3 3 2 2 3 4 5 5 7 7 8 10 12 11 11 10 10 10 9 8 7
1 1 1 1 1 1 1 1 2 2 2 2 2 3 2 2 2 2 2 2 2 2 2 4 3 2 2 4 4 4 5 5 6 9 10 10 11 11 11 11 10 9 8
2 1 1 1 1 1 1 1 1 1 1 1 1 1 1 2 2 3 2 2 2 2 2 4 4 3 3 3 4 4 3 3 3 7 9 9 10 11 10 10 10 9 8
2 2 2 2 1 1 1 1 1 2 2 2 1 1 0 1 1 1 1 1 2 2 3 4 4 3 3 3 3 3 4 4 3 4 5 5 7 7 8 9 8 8 7
3 3 2 2 2 2 3 3 3 2 3 2 2 2 2 3 4 4 4 5 3 3 3 3 3 4 3 3 3 3 4 4 3 3 4 3 5 4 6 8 8 8 7
3 3 3 3 3 4 5 5 4 3 3 3 3 2 2 3 3 3 5 6 7 6 4 4 4 3 3 3 4 4 4 4 3 4 4 3 3 4 6 9 10 8 7
3 3 3 3 3 4 5 5 5 4 4 3 3 3 3 3 2 4 5 6 6 6 5 4 4 4 3 3 4 4 5 6 5 4 3 2 3 3 5 9 11 9 7
3 3 3 3 3 3 3 3 4 4 4 4 3 4 3 3 4 4 5 6 6 5 10 12 11 10 9 9 7 4 5 5 5 3 1 1 2 2 3 3 8 9 8
3 3 3 3 3 3 3 2 3 3 4 3 3 4 5 5 5 4 5 5 6 5 6 7 8 8 8 8 7 4 4 4 4 3 1 1 1 1 1 2 5 8 8
Wind_Direction
144 141 145 158 169 160 164 173 153 131 117 124 118 88 76 95 111 123 136 148 150 154 157 158 160 158 157 157 154 152 152 153 154 152 152 153 154 151 148 146 142 142 141
135 137 147 157 158 154 161 161 157 154 172 143 109 107 114 108 115 129 144 154 160 165 169 172 174 173 172 172 170 169 169 167 168 169 170 170 173 172 169 163 165 170 168
144 150 145 167 159 154 151 161 162 166 185 175 164 152 141 128 140 144 152 160 167 175 180 183 185 186 186 187 186 187 186 186 184 183 183 183 185 186 188 187 187 192 190
162 158 158 168 158 160 156 168 202 193 191 184 175 178 153 138 153 167 168 170 170 176 185 191 191 194 196 197 197 197 197 195 194 194 195 193 193 193 193 195 198 203 207
168 175 168 156 170 159 172 194 183 197 181 202 192 187 171 165 178 195 184 180 174 170 175 188 194 196 201 203 203 201 200 199 199 200 201 200 200 200 200 204 208 210 215
178 188 180 172 188 167 175 208 162 184 197 217 236 190 188 182 180 193 194 187 178 177 177 178 188 201 207 209 209 206 204 203 204 205 205 206 206 206 208 211 215 214 217
184 193 191 168 195 182 185 192 196 201 213 215 222 211 226 214 200 194 185 179 186 192 183 175 185 192 199 212 213 210 209 209 208 206 207 207 209 208 210 213 215 216 219
183 187 189 195 192 190 193 204 203 216 226 210 204 192 237 246 238 220 191 190 199 195 185 185 187 189 190 190 205 211 211 210 207 204 203 204 205 205 205 207 209 205 207
192 198 185 201 196 197 192 203 205 214 236 242 218 199 203 211 257 246 215 198 187 192 192 183 189 188 196 191 194 203 207 207 204 202 201 201 202 203 202 201 199 198 199
198 199 193 198 202 219 197 203 203 213 220 240 250 231 220 205 190 267 276 208 181 196 213 198 187 184 191 188 187 186 197 199 198 198 197 197 197 199 199 197 195 192 190
197 203 197 195 202 219 218 222 199 210 222 232 241 232 224 227 212 210 233 246 222 203 198 186 168 172 183 187 188 184 184 189 191 192 192 193 196 199 198 195 191 187 186
192 201 200 201 209 221 223 221 218 217 232 246 255 257 240 226 224 217 216 219 224 233 189 177 167 169 174 177 187 175 175 178 182 184 184 187 191 192 186 183 184 187 195
196 201 202 198 208 215 215 210 216 227 224 236 246 258 258 250 236 229 213 222 228 235 217 205 165 150 164 162 161 160 164 165 168 172 173 176 176 171 166 163 160 161 162
199 196 199 202 203 209 220 209 214 222 223 230 239 241 253 261 252 228 217 217 229 234 214 213 178 128 132 138 146 151 153 159 161 161 160 157 151 147 145 140 131 124 119
214 201 203 208 209 212 222 215 221 225 217 223 236 236 242 254 258 248 231 216 214 226 233 220 184 132 128 133 139 139 136 144 150 150 147 143 139 134 130 126 120 115 110
216 205 201 208 210 216 220 216 222 226 221 227 233 238 242 253 262 255 247 251 225 212 218 213 123 99 110 121 126 127 130 137 144 146 146 144 142 139 137 133 129 122 116
206 209 207 205 207 213 217 216 225 221 219 226 230 217 219 238 269 269 245 236 230 199 198 209 93 106 100 102 112 116 120 127 136 146 149 148 144 141 138 133 128 122 117
195 190 195 199 213 218 220 217 228 222 215 223 230 224 225 223 230 252 251 244 230 218 180 170 141 119 111 123 122 123 126 130 132 135 136 137 136 132 129 124 121 118 112
126 130 153 187 211 219 235 228 223 220 220 224 230 228 230 225 239 242 228 228 230 218 164 162 158 137 122 127 121 122 118 122 135 132 129 127 127 125 122 119 116 112 109
135 123 109 86 60 17 347 286 197 189 189 185 209 228 240 221 221 232 228 220 212 193 157 152 147 142 133 137 137 145 136 131 130 129 122 122 123 122 121 119 118 115 110
126 99 89 74 54 40 7 10 116 138 123 99 78 65 28 97 105 167 203 196 188 170 160 158 150 142 145 153 165 168 156 140 111 117 113 119 125 122 122 126 125 124 118
92 90 87 83 68 39 33 67 99 97 98 103 94 78 76 79 93 97 94 87 98 150 168 165 157 150 149 146 148 151 147 148 144 139 131 123 133 124 134 138 140 139 132
83 78 81 83 76 50 60 73 87 99 88 81 76 78 83 83 94 111 101 92 77 78 112 146 146 153 156 165 157 147 139 134 128 151 137 131 137 127 138 146 149 144 141
87 82 77 78 79 61 71 90 93 101 91 81 77 87 88 79 72 106 106 98 82 62 72 101 118 124 123 131 150 153 142 117 95 100 108 124 141 136 137 154 165 164 167
101 95 92 89 85 65 63 99 121 121 110 99 88 75 82 82 72 108 122 114 105 90 75 84 90 96 98 101 108 119 130 137 128 118 100 117 128 122 127 158 188 192 195
119 112 100 96 98 84 65 81 134 141 127 116 103 90 76 72 73 91 117 122 121 113 109 99 93 97 101 101 102 102 136 142 132 122 108 110 121 116 131 162 186 199 211
Height
1573 1575 1576 1578 1579 1581 1581 1583 1584 1585 1587 1588 1589 1590 1590 1591 1591 1591 1591 1592 1593 1593 1594 1595 1595 1596 1597 1597 1598 1599 1600 1600 1601 1602 1602 1603 1604 1604 1605 1605 1606 1606 1606
1573 1575 1576 1578 1579 1581 1582 1583 1584 1586 1587 1588 1589 1590 1591 1591 1591 1591 1592 1592 1593 1594 1594 1595 1596 1596 1597 1597 1598 1599 1599 1600 1601 1601 1602 1603 1603 1604 1605 1605 1605 1606 1606
1573 1575 1576 1578 1579 1581 1582 1583 1584 1586 1587 1588 1589 1590 1591 1591 1592 1592 1592 1592 1593 1593 1594 1595 1595 1596 1596 1597 1598 1598 1599 1600 1600 1601 1601 1602 1603 1603 1604 1605 1605 1605 1606
1572 1574 1576 1577 1579 1580 1581 1583 1584 1586 1587 1588 1588 1589 1590 1590 1591 1592 1592 1592 1592 1593 1593 1594 1595 1595 1596 1596 1597 1597 1598 1599 1599 1600 1601 1601 1602 1603 1603 1604 1604 1604 1605
1571 1573 1575 1577 1578 1579 1581 1582 1584 1585 1586 1587 1588 1588 1589 1589 1590 1591 1591 1592 1592 1592 1592 1593 1594 1594 1595 1595 1596 1596 1597 1598 1598 1599 1600 1600 1601 1601 1602 1602 1603 1603 1603
1569 1571 1573 1575 1577 1578 1580 1581 1582 1584 1585 1586 1587 1587 1588 1588 1589 1589 1590 1591 1591 1591 1591 1592 1592 1593 1593 1594 1594 1595 1596 1596 1597 1598 1598 1599 1600 1600 1601 1601 1601 1602 1602
1568 1569 1572 1573 1575 1577 1578 1580 1581 1582 1583 1584 1585 1586 1586 1587 1587 1588 1588 1589 1590 1590 1591 1590 1591 1591 1591 1592 1593 1593 1594 1595 1595 1596 1597 1597 1598 1598 1599 1599 1599 1600 1600
1566 1568 1569 1571 1573 1575 1576 1578 1579 1580 1581 1583 1584 1584 1585 1586 1585 1586 1587 1587 1588 1588 1589 1589 1589 1589 1590 1590 1591 1592 1592 1593 1593 1594 1595 1595 1596 1596 1597 1597 1598 1598 1598
1564 1565 1567 1569 1571 1573 1574 1575 1577 1578 1580 1581 1582 1583 1583 1583 1583 1584 1584 1585 1585 1586 1587 1587 1587 1587 1588 1588 1589 1590 1590 1591 1591 1592 1593 1593 1594 1594 1595 1595 1596 1596 1596
1561 1563 1565 1567 1569 1570 1572 1573 1574 1576 1577 1578 1579 1580 1581 1581 1582 1582 1583 1583 1583 1583 1584 1584 1585 1585 1585 1586 1586 1587 1588 1589 1589 1590 1590 1591 1592 1592 1593 1593 1593 1593 1594
1558 1560 1562 1564 1566 1567 1569 1570 1572 1573 1575 1576 1576 1577 1578 1579 1579 1580 1580 1581 1581 1581 1581 1581 1582 1582 1582 1583 1584 1584 1585 1586 1587 1588 1588 1589 1589 1590 1590 1591 1591 1591 1591
1556 1558 1559 1561 1563 1564 1566 1567 1568 1570 1571 1572 1573 1574 1575 1576 1576 1577 1577 1577 1578 1578 1578 1578 1579 1579 1580 1580 1581 1581 1582 1584 1584 1585 1586 1586 1587 1587 1588 1588 1588 1588 1588
1553 1555 1556 1557 1559 1561 1562 1564 1565 1567 1568 1569 1570 1570 1571 1572 1573 1573 1574 1574 1575 1575 1576 1576 1576 1577 1577 1577 1578 1579 1580 1581 1582 1582 1583 1583 1584 1584 1585 1585 1585 1585 1585
1551 1552 1554 1555 1556 1557 1559 1560 1561 1563 1564 1565 1566 1567 1568 1568 1569 1570 1570 1571 1571 1572 1572 1573 1574 1574 1574 1575 1575 1577 1577 1578 1579 1580 1580 1581 1581 1582 1582 1582 1582 1582 1582
1549 1550 1551 1552 1553 1554 1555 1556 1558 1559 1560 1561 1562 1563 1564 1564 1565 1565 1566 1567 1568 1568 1569 1570 1570 1571 1571 1572 1572 1573 1574 1575 1576 1577 1577 1578 1578 1579 1579 1579 1579 1579 1579
1546 1547 1548 1549 1550 1551 1552 1553 1554 1555 1556 1556 1557 1558 1559 1560 1560 1561 1562 1563 1564 1564 1565 1565 1567 1567 1568 1568 1569 1570 1571 1572 1573 1573 1574 1574 1575 1575 1576 1576 1576 1576 1576
1544 1544 1545 1546 1547 1548 1549 1549 1550 1551 1552 1553 1553 1554 1554 1555 1555 1556 1557 1558 1559 1560 1560 1561 1563 1564 1565 1565 1566 1567 1567 1568 1569 1570 1571 1571 1571 1572 1572 1572 1572 1572 1572
1541 1542 1543 1543 1544 1545 1546 1546 1546 1547 1548 1548 1549 1550 1550 1550 1551 1551 1552 1553 1554 1555 1556 1557 1558 1559 1561 1561 1562 1563 1564 1565 1566 1567 1567 1568 1568 1569 1569 1569 1569 1569 1569
1539 1540 1540 1541 1542 1542 1543 1543 1543 1544 1544 1545 1545 1545 1546 1546 1546 1547 1547 1549 1550 1551 1552 1553 1554 1555 1557 1558 1559 1560 1560 1561 1562 1563 1564 1564 1565 1565 1566 1566 1566 1566 1565
1537 1538 1539 1539 1540 1540 1540 1540 1541 1541 1541 1541 1541 1541 1542 1542 1542 1543 1543 1545 1546 1547 1548 1548 1550 1551 1552 1554 1555 1555 1556 1557 1559 1560 1561 1561 1562 1563 1563 1563 1563 1563 1562
1536 1537 1537 1537 1538 1538 1538 1538 1538 1539 1538 1538 1538 1539 1539 1539 1539 1539 1540 1541 1542 1543 1544 1545 1546 1548 1549 1550 1550 1552 1553 1554 1556 1557 1558 1559 1560 1560 1561 1561 1561 1561 1560
1535 1535 1536 1536 1536 1536 1536 1536 1536 1537 1537 1536 1536 1536 1537 1537 1537 1537 1538 1538 1539 1540 1541 1542 1544 1545 1546 1547 1548 1549 1551 1552 1553 1555 1555 1556 1557 1557 1558 1558 1559 1559 1558
1534 1534 1534 1534 1534 1534 1534 1535 1535 1535 1535 1535 1535 1535 1535 1535 1535 1535 1536 1536 1537 1538 1540 1541 1541 1542 1544 1545 1546 1547 1549 1550 1551 1552 1553 1554 1556 1556 1557 1557 1558 1558 1557
1533 1533 1533 1533 1533 1533 1534 1534 1534 1533 1533 1533 1534 1534 1534 1534 1534 1534 1534 1534 1535 1536 1537 1538 1539 1541 1542 1543 1545 1546 1547 1548 1549 1551 1552 1553 1554 1555 1556 1556 1557 1557 1557
1532 1532 1532 1533 1533 1533 1533 1533 1533 1533 1533 1533 1533 1533 1533 1533 1533 1533 1533 1533 1534 1535 1537 1538 1539 1540 1541 1542 1543 1544 1545 1546 1547 1549 1551 1552 1553 1554 1555 1555 1556 1556 1556
1532 1532 1532 1532 1532 1532 1533 1533 1533 1533 1532 1532 1532 1532 1533 1533 1533 1533 1533 1534 1534 1535 1536 1537 1538 1539 1540 1541 1542 1543 1544 1544 1546 1547 1549 1550 1552 1553 1554 1555 1556 1556 1556